TimeEDT,TemperatureF,Dew PointF,Humidity,Sea Level PressureIn,VisibilityMPH,Wind Direction,Wind SpeedMPH,Gust SpeedMPH,PrecipitationIn,Events,Conditions,WindDirDegrees,DateUTC
12:53 AM,42.1,28.9,60,30.14,10.0,NW,4.6,-,N/A,,Clear,320,2013-03-30 04:53:00
1:53 AM,39.0,28.0,65,30.14,10.0,Calm,Calm,-,N/A,,Clear,0,2013-03-30 05:53:00
2:53 AM,36.0,28.0,73,30.14,10.0,Calm,Calm,-,N/A,,Clear,0,2013-03-30 06:53:00
3:53 AM,35.1,28.0,76,30.14,10.0,NW,3.5,-,N/A,,Clear,320,2013-03-30 07:53:00
4:53 AM,35.1,27.0,72,30.14,10.0,Calm,Calm,-,N/A,,Clear,0,2013-03-30 08:53:00
5:53 AM,34.0,27.0,75,30.14,10.0,NW,4.6,-,N/A,,Clear,310,2013-03-30 09:53:00
6:53 AM,34.0,27.0,75,30.15,10.0,NW,4.6,-,N/A,,Clear,320,2013-03-30 10:53:00
7:53 AM,37.9,28.0,68,30.17,10.0,NW,3.5,-,N/A,,Clear,320,2013-03-30 11:53:00
8:53 AM,42.1,28.0,58,30.18,10.0,NW,8.1,-,N/A,,Clear,320,2013-03-30 12:53:00
9:53 AM,48.0,28.9,48,30.18,10.0,North,6.9,-,N/A,,Clear,360,2013-03-30 13:53:00
10:53 AM,51.1,28.0,41,30.17,10.0,NW,4.6,-,N/A,,Clear,320,2013-03-30 14:53:00
11:53 AM,52.0,25.0,35,30.16,10.0,NNW,10.4,-,N/A,,Clear,340,2013-03-30 15:53:00
12:53 PM,54.0,23.0,30,30.14,10.0,WNW,11.5,18.4,N/A,,Partly Cloudy,290,2013-03-30 16:53:00
1:53 PM,55.9,21.0,26,30.11,10.0,West,12.7,17.3,N/A,,Scattered Clouds,280,2013-03-30 17:53:00
2:53 PM,55.0,21.0,27,30.09,10.0,Variable,4.6,-,N/A,,Mostly Cloudy,0,2013-03-30 18:53:00
3:53 PM,57.9,21.0,24,30.08,10.0,WNW,9.2,-,N/A,,Overcast,300,2013-03-30 19:53:00
4:53 PM,57.0,21.0,25,30.07,10.0,WNW,11.5,-,N/A,,Partly Cloudy,300,2013-03-30 20:53:00
5:53 PM,55.9,19.9,25,30.07,10.0,West,8.1,-,N/A,,Scattered Clouds,280,2013-03-30 21:53:00
6:53 PM,55.0,21.0,27,30.08,10.0,West,4.6,-,N/A,,Clear,280,2013-03-30 22:53:00
7:53 PM,52.0,21.0,30,30.09,10.0,West,3.5,-,N/A,,Clear,270,2013-03-30 23:53:00
8:53 PM,50.0,21.0,32,30.10,10.0,West,3.5,-,N/A,,Clear,260,2013-03-31 00:53:00
9:53 PM,48.9,21.9,35,30.11,10.0,West,3.5,-,N/A,,Clear,270,2013-03-31 01:53:00
10:53 PM,46.0,23.0,40,30.12,10.0,Calm,Calm,-,N/A,,Clear,0,2013-03-31 02:53:00
11:53 PM,44.1,24.1,45,30.12,10.0,SW,4.6,-,N/A,,Clear,230,2013-03-31 03:53:00